| time (UTC) | temp F | wind direction | speed knots | gust knots | rain 1hr in | rain 24hr in | rain mn in | humidity % | barometer mb |
| 20260505011030 | 67 | 92 | 0.0 | 0.9 | 0.00 | 0.00 | 0.00 | 49 | 1010.1 |
| 20260505010022 | 67 | 75 | 0.0 | 0.9 | 0.00 | 0.00 | 0.00 | 49 | 1010.0 |
| 20260505005031 | 68 | 91 | 0.0 | 1.7 | 0.00 | 0.00 | 0.00 | 48 | 1010.0 |
| 20260505004023 | 69 | 77 | 0.0 | 0.9 | 0.00 | 0.00 | 0.00 | 46 | 1009.8 |
| 20260505003101 | 69 | 94 | 0.9 | 2.6 | 0.00 | 0.00 | 0.00 | 45 | 1009.8 |
| 20260505002023 | 70 | 121 | 0.9 | 4.3 | 0.00 | 0.00 | 0.00 | 44 | 1009.9 |
| 20260505001031 | 70 | 112 | 0.0 | 2.6 | 0.00 | 0.00 | 0.00 | 45 | 1009.7 |
| 20260505000022 | 70 | 143 | 0.0 | 2.6 | 0.00 | 0.00 | 0.00 | 44 | 1009.6 |
| 20260504235031 | 70 | 109 | 0.0 | 0.9 | 0.00 | 0.00 | 0.00 | 44 | 1009.7 |
| 20260504234022 | 70 | 89 | 0.9 | 2.6 | 0.00 | 0.00 | 0.00 | 43 | 1009.7 |
| 20260504233022 | 71 | 114 | 0.0 | 0.9 | 0.00 | 0.00 | 0.00 | 42 | 1009.5 |
| 20260504232024 | 72 | 88 | 0.9 | 5.2 | 0.00 | 0.00 | 0.00 | 40 | 1009.5 |
| 20260504231031 | 73 | 88 | 0.9 | 2.6 | 0.00 | 0.00 | 0.00 | 40 | 1009.6 |
| 20260504230023 | 74 | 105 | 0.9 | 4.3 | 0.00 | 0.00 | 0.00 | 38 | 1009.7 |
| 20260504225031 | 73 | 140 | 0.9 | 1.7 | 0.00 | 0.00 | 0.00 | 39 | 1009.6 |
| 20260504224023 | 73 | 97 | 0.9 | 1.7 | 0.00 | 0.00 | 0.00 | 39 | 1009.4 |
| 20260504223022 | 73 | 134 | 0.9 | 2.6 | 0.00 | 0.00 | 0.00 | 38 | 1009.5 |
| 20260504222022 | 73 | 131 | 0.9 | 3.5 | 0.00 | 0.00 | 0.00 | 37 | 1009.4 |
| 20260504221030 | 74 | 104 | 0.9 | 5.2 | 0.00 | 0.00 | 0.00 | 37 | 1009.4 |
| 20260504220042 | 74 | 122 | 0.9 | 3.5 | 0.00 | 0.00 | 0.00 | 37 | 1009.4 |
| 20260504215029 | 76 | 106 | 0.9 | 4.3 | 0.00 | 0.00 | 0.00 | 36 | 1009.5 |
| 20260504214023 | 77 | 102 | 0.9 | 5.2 | 0.00 | 0.00 | 0.00 | 36 | 1009.5 |
| 20260504213023 | 77 | 168 | 0.9 | 3.5 | 0.00 | 0.00 | 0.00 | 35 | 1009.6 |
| 20260504212023 | 77 | 125 | 0.9 | 3.5 | 0.00 | 0.00 | 0.00 | 35 | 1009.7 |
| 20260504211031 | 75 | 150 | 0.9 | 2.6 | 0.00 | 0.00 | 0.00 | 36 | 1009.6 |
| 20260504210022 | 75 | 103 | 1.7 | 5.2 | 0.00 | 0.00 | 0.00 | 36 | 1009.7 |
| 20260504205030 | 76 | 143 | 0.9 | 2.6 | 0.00 | 0.00 | 0.00 | 35 | 1009.7 |
| 20260504204024 | 76 | 149 | 0.9 | 2.6 | 0.00 | 0.00 | 0.00 | 35 | 1009.7 |
| 20260504203026 | 76 | 120 | 0.9 | 2.6 | 0.00 | 0.00 | 0.00 | 35 | 1009.9 |
| 20260504202023 | 76 | 113 | 0.9 | 4.3 | 0.00 | 0.00 | 0.00 | 36 | 1010.1 |
| 20260504201051 | 76 | 139 | 0.9 | 3.5 | 0.00 | 0.00 | 0.00 | 35 | 1010.0 |
| 20260504200023 | 77 | 109 | 0.9 | 3.5 | 0.00 | 0.00 | 0.00 | 35 | 1010.0 |
| 20260504195051 | 77 | 252 | 0.9 | 2.6 | 0.00 | 0.00 | 0.00 | 35 | 1010.2 |
| 20260504194042 | 77 | 178 | 0.9 | 1.7 | 0.00 | 0.00 | 0.00 | 34 | 1010.4 |
| 20260504193026 | 75 | 82 | 0.9 | 2.6 | 0.00 | 0.00 | 0.00 | 37 | 1010.7 |
| 20260504192016 | 76 | 138 | 1.7 | 4.3 | 0.00 | 0.00 | 0.00 | 37 | 1010.9 |
| 20260504191030 | 76 | 6 | 0.9 | 2.6 | 0.00 | 0.00 | 0.00 | 36 | 1011.0 |
| 20260504190024 | 76 | 178 | 1.7 | 5.2 | 0.00 | 0.00 | 0.00 | 36 | 1011.3 |
| 20260504185031 | 77 | 185 | 0.9 | 2.6 | 0.00 | 0.00 | 0.00 | 35 | 1011.3 |
| 20260504184024 | 75 | 141 | 0.9 | 2.6 | 0.00 | 0.00 | 0.00 | 37 | 1011.5 |
| 20260504183027 | 74 | 155 | 1.7 | 5.2 | 0.00 | 0.00 | 0.00 | 36 | 1011.5 |
| 20260504182017 | 74 | 154 | 1.7 | 6.1 | 0.00 | 0.00 | 0.00 | 36 | 1011.7 |
| 20260504181030 | 74 | 94 | 0.9 | 5.2 | 0.00 | 0.00 | 0.00 | 36 | 1011.8 |
| 20260504180042 | 74 | 180 | 0.9 | 2.6 | 0.00 | 0.00 | 0.00 | 34 | 1012.0 |
| 20260504175032 | 74 | 136 | 0.9 | 2.6 | 0.00 | 0.00 | 0.00 | 35 | 1012.1 |
| 20260504174024 | 73 | 165 | 0.9 | 3.5 | 0.00 | 0.00 | 0.00 | 36 | 1012.2 |
| 20260504173048 | 73 | 164 | 1.7 | 5.2 | 0.00 | 0.00 | 0.00 | 35 | 1012.2 |
| 20260504172018 | 73 | 167 | 0.9 | 2.6 | 0.00 | 0.00 | 0.00 | 36 | 1012.3 |
| 20260504171031 | 72 | 213 | 0.9 | 3.5 | 0.00 | 0.00 | 0.00 | 35 | 1012.5 |
| 20260504151031 | 68 | 72 | 0.9 | 2.6 | 0.00 | 0.00 | 0.00 | 39 | 1013.8 |
| 20260504141029 | 64 | 153 | 0.9 | 2.6 | 0.00 | 0.00 | 0.00 | 46 | 1014.0 |
| 20260504081015 | 49 | 0.0 | 0.0 | 0.00 | 0.00 | 0.00 | 67 | 1015.2 | |
| 20260504050023 | 47 | 0.0 | 0.0 | 0.00 | 0.00 | 0.00 | 61 | 1015.4 | |
| 20260504045015 | 48 | 0.0 | 0.0 | 0.00 | 0.00 | 0.00 | 59 | 1015.4 | |
| 20260504044025 | 48 | 0.0 | 0.0 | 0.00 | 0.00 | 0.00 | 56 | 1015.5 | |
| 20260504043016 | 49 | 59 | 0.0 | 0.9 | 0.00 | 0.00 | 0.00 | 56 | 1015.5 |
| 20260504042024 | 50 | 0.0 | 0.0 | 0.00 | 0.00 | 0.00 | 53 | 1015.4 | |
| 20260504041016 | 49 | 37 | 0.0 | 0.9 | 0.00 | 0.00 | 0.00 | 55 | 1015.4 |
| 20260504040024 | 47 | 343 | 0.0 | 0.9 | 0.00 | 0.00 | 0.00 | 59 | 1015.3 |
| 20260504035016 | 47 | 314 | 0.0 | 0.9 | 0.00 | 0.00 | 0.00 | 59 | 1015.3 |
| 20260504034023 | 47 | 275 | 0.0 | 0.9 | 0.00 | 0.00 | 0.00 | 61 | 1015.2 |
| 20260504033030 | 46 | 0.0 | 0.0 | 0.00 | 0.00 | 0.00 | 64 | 1015.2 | |
| 20260504032023 | 46 | 0.0 | 0.0 | 0.00 | 0.00 | 0.00 | 63 | 1015.0 | |
| 20260504031017 | 46 | 0.0 | 0.0 | 0.00 | 0.00 | 0.00 | 63 | 1014.8 | |
| 20260504030045 | 46 | 0.0 | 0.0 | 0.00 | 0.00 | 0.00 | 62 | 1014.9 | |
| 20260504025017 | 46 | 0.0 | 0.0 | 0.00 | 0.00 | 0.00 | 63 | 1014.8 | |
| 20260504024024 | 47 | 0.0 | 0.0 | 0.00 | 0.00 | 0.00 | 63 | 1014.9 | |
| 20260504023036 | 47 | 0.0 | 0.0 | 0.00 | 0.00 | 0.00 | 60 | 1014.9 | |
| 20260504022024 | 47 | 0.0 | 0.0 | 0.00 | 0.00 | 0.00 | 59 | 1014.7 | |
| 20260504021036 | 47 | 0.0 | 0.0 | 0.00 | 0.00 | 0.00 | 62 | 1014.7 | |
| 20260504020023 | 47 | 0.0 | 0.0 | 0.00 | 0.00 | 0.00 | 63 | 1014.7 | |
| 20260504015049 | 47 | 0.0 | 0.0 | 0.00 | 0.00 | 0.00 | 62 | 1014.6 | |
| 20260504014025 | 47 | 0.0 | 0.0 | 0.00 | 0.00 | 0.00 | 65 | 1014.8 | |
| 20260504013017 | 47 | 0.0 | 0.0 | 0.00 | 0.00 | 0.00 | 63 | 1014.7 | |
| 20260504012045 | 48 | 0.0 | 0.0 | 0.00 | 0.00 | 0.00 | 60 | 1014.6 |